Time,TemperatureF,DewpointF,PressureIn,WindDirection,WindDirectionDegrees,WindSpeedMPH,WindSpeedGustMPH,Humidity,HourlyPrecipIn,Conditions,Clouds,dailyrainin,SoftwareType,DateUTC
2013-11-10 00:02:00,33.5,23.4,30.29,WNW,302,0.0,0.0,66,0.00,,OVC032,0.00,VWS V14.00,2013-11-10 06:02:00,
2013-11-10 00:07:00,33.3,23.2,30.29,NW,304,0.0,0.0,66,0.00,,OVC032,0.00,VWS V14.00,2013-11-10 06:07:00,
2013-11-10 00:12:00,33.2,23.5,30.29,NW,310,10.0,10.0,67,0.00,,OVC032,0.00,VWS V14.00,2013-11-10 06:12:00,
2013-11-10 00:17:00,33.0,23.2,30.28,WNW,303,0.0,10.0,67,0.00,,OVC032,0.00,VWS V14.00,2013-11-10 06:17:00,
2013-11-10 00:22:00,32.9,23.2,30.28,NW,308,0.0,9.0,67,0.00,,OVC032,0.00,VWS V14.00,2013-11-10 06:22:00,
2013-11-10 00:27:00,32.8,23.1,30.29,NW,307,0.0,9.0,67,0.00,,OVC032,0.00,VWS V14.00,2013-11-10 06:27:00,
2013-11-10 00:32:00,32.7,23.0,30.29,NW,306,0.0,0.0,67,0.00,,OVC032,0.00,VWS V14.00,2013-11-10 06:32:00,
2013-11-10 00:37:00,32.7,23.0,30.28,NW,307,0.0,0.0,67,0.00,,OVC032,0.00,VWS V14.00,2013-11-10 06:37:00,
2013-11-10 00:42:00,32.6,22.9,30.28,NW,307,0.0,0.0,67,0.00,,OVC032,0.00,VWS V14.00,2013-11-10 06:42:00,
2013-11-10 00:47:00,32.5,22.8,30.29,NW,307,0.0,0.0,67,0.00,,OVC032,0.00,VWS V14.00,2013-11-10 06:47:00,
2013-11-10 00:52:00,32.5,23.1,30.29,NW,310,0.0,0.0,68,0.00,,OVC032,0.00,VWS V14.00,2013-11-10 06:52:00,
2013-11-10 00:57:00,32.5,23.1,30.29,NW,310,0.0,0.0,68,0.00,,OVC032,0.00,VWS V14.00,2013-11-10 06:57:00,
2013-11-10 01:02:00,32.5,23.1,30.29,NW,310,0.0,0.0,68,0.00,,OVC030,0.00,VWS V14.00,2013-11-10 07:02:00,
2013-11-10 01:07:00,32.5,23.1,30.28,NW,310,0.0,0.0,68,0.00,,OVC030,0.00,VWS V14.00,2013-11-10 07:07:00,
2013-11-10 01:12:00,32.3,22.9,30.28,NW,310,0.0,0.0,68,0.00,,OVC030,0.00,VWS V14.00,2013-11-10 07:12:00,
2013-11-10 01:17:00,32.1,22.8,30.29,NW,310,0.0,0.0,68,0.00,,OVC030,0.00,VWS V14.00,2013-11-10 07:17:00,
2013-11-10 01:22:00,31.8,22.5,30.28,NW,310,0.0,0.0,68,0.00,,OVC030,0.00,VWS V14.00,2013-11-10 07:22:00,
2013-11-10 01:27:00,31.5,22.2,30.28,NW,310,0.0,0.0,68,0.00,,OVC030,0.00,VWS V14.00,2013-11-10 07:27:00,
2013-11-10 01:32:00,31.2,21.9,30.28,NW,310,0.0,0.0,68,0.00,,OVC030,0.00,VWS V14.00,2013-11-10 07:32:00,
2013-11-10 01:37:00,30.8,21.5,30.28,NW,310,0.0,0.0,68,0.00,,OVC030,0.00,VWS V14.00,2013-11-10 07:37:00,
2013-11-10 01:42:00,30.6,21.6,30.29,NW,310,0.0,0.0,69,0.00,,OVC030,0.00,VWS V14.00,2013-11-10 07:42:00,
2013-11-10 01:47:00,30.4,21.5,30.29,NW,310,0.0,0.0,69,0.00,,OVC030,0.00,VWS V14.00,2013-11-10 07:47:00,
2013-11-10 01:52:00,30.2,21.3,30.29,NW,310,0.0,0.0,69,0.00,,OVC030,0.00,VWS V14.00,2013-11-10 07:52:00,
2013-11-10 01:57:00,30.0,21.4,30.28,NW,310,0.0,0.0,70,0.00,,OVC030,0.00,VWS V14.00,2013-11-10 07:57:00,
2013-11-10 02:02:00,29.7,21.1,30.28,NW,310,0.0,0.0,70,0.00,,CLR,0.00,VWS V14.00,2013-11-10 08:02:00,
2013-11-10 02:07:00,29.5,20.9,30.28,NW,310,0.0,0.0,70,0.00,,CLR,0.00,VWS V14.00,2013-11-10 08:07:00,
2013-11-10 02:12:00,29.3,20.7,30.28,NW,310,0.0,0.0,70,0.00,,CLR,0.00,VWS V14.00,2013-11-10 08:12:00,
2013-11-10 02:17:00,29.1,20.9,30.28,NW,310,0.0,0.0,71,0.00,,CLR,0.00,VWS V14.00,2013-11-10 08:17:00,
2013-11-10 02:22:00,28.9,20.7,30.28,NW,310,0.0,0.0,71,0.00,,CLR,0.00,VWS V14.00,2013-11-10 08:22:00,
2013-11-10 02:27:00,28.6,20.4,30.28,NW,310,0.0,0.0,71,0.00,,CLR,0.00,VWS V14.00,2013-11-10 08:27:00,
2013-11-10 02:32:00,28.4,20.2,30.28,NW,310,0.0,0.0,71,0.00,,CLR,0.00,VWS V14.00,2013-11-10 08:32:00,
2013-11-10 02:37:00,28.3,20.1,30.28,NW,310,0.0,0.0,71,0.00,,CLR,0.00,VWS V14.00,2013-11-10 08:37:00,
2013-11-10 02:42:00,28.1,20.2,30.28,NW,310,0.0,0.0,72,0.00,,CLR,0.00,VWS V14.00,2013-11-10 08:42:00,
2013-11-10 02:47:00,28.0,20.2,30.28,NW,310,0.0,0.0,72,0.00,,CLR,0.00,VWS V14.00,2013-11-10 08:47:00,
2013-11-10 02:53:00,27.9,20.1,30.28,NW,310,0.0,0.0,72,0.00,,CLR,0.00,VWS V14.00,2013-11-10 08:53:00,
2013-11-10 02:58:00,27.7,19.9,30.28,NW,310,0.0,0.0,72,0.00,,CLR,0.00,VWS V14.00,2013-11-10 08:58:00,
2013-11-10 03:03:00,27.6,20.1,30.28,NW,310,0.0,0.0,73,0.00,,CLR,0.00,VWS V14.00,2013-11-10 09:03:00,
2013-11-10 03:08:00,27.6,20.1,30.28,NW,310,0.0,0.0,73,0.00,,CLR,0.00,VWS V14.00,2013-11-10 09:08:00,
2013-11-10 03:13:00,27.6,20.1,30.28,NW,310,0.0,0.0,73,0.00,,CLR,0.00,VWS V14.00,2013-11-10 09:13:00,
2013-11-10 03:18:00,27.5,20.0,30.29,NW,310,0.0,0.0,73,0.00,,CLR,0.00,VWS V14.00,2013-11-10 09:18:00,
2013-11-10 03:23:00,27.4,19.9,30.29,NW,310,0.0,0.0,73,0.00,,CLR,0.00,VWS V14.00,2013-11-10 09:23:00,
2013-11-10 03:28:00,27.4,20.2,30.29,NW,310,0.0,0.0,74,0.00,,CLR,0.00,VWS V14.00,2013-11-10 09:28:00,
2013-11-10 03:33:00,27.4,20.2,30.30,NW,310,0.0,0.0,74,0.00,,CLR,0.00,VWS V14.00,2013-11-10 09:33:00,
2013-11-10 03:38:00,27.3,19.8,30.29,NW,310,0.0,0.0,73,0.00,,CLR,0.00,VWS V14.00,2013-11-10 09:38:00,
2013-11-10 03:43:00,27.3,20.1,30.29,NW,310,0.0,0.0,74,0.00,,CLR,0.00,VWS V14.00,2013-11-10 09:43:00,
2013-11-10 03:48:00,27.2,20.0,30.29,NW,310,0.0,0.0,74,0.00,,CLR,0.00,VWS V14.00,2013-11-10 09:48:00,
2013-11-10 03:53:00,27.2,20.0,30.28,NW,310,0.0,0.0,74,0.00,,CLR,0.00,VWS V14.00,2013-11-10 09:53:00,
2013-11-10 03:58:00,27.1,19.9,30.28,NW,310,0.0,0.0,74,0.00,,CLR,0.00,VWS V14.00,2013-11-10 09:58:00,
2013-11-10 04:03:00,26.9,19.7,30.28,NW,310,0.0,0.0,74,0.00,,CLR,0.00,VWS V14.00,2013-11-10 10:03:00,
2013-11-10 04:08:00,26.8,19.6,30.28,NW,310,0.0,0.0,74,0.00,,CLR,0.00,VWS V14.00,2013-11-10 10:08:00,
2013-11-10 04:13:00,26.6,19.4,30.28,NW,310,0.0,0.0,74,0.00,,CLR,0.00,VWS V14.00,2013-11-10 10:13:00,
2013-11-10 04:18:00,26.3,19.1,30.28,NW,310,0.0,0.0,74,0.00,,CLR,0.00,VWS V14.00,2013-11-10 10:18:00,
2013-11-10 04:23:00,26.0,18.9,30.27,NW,310,0.0,0.0,74,0.00,,CLR,0.00,VWS V14.00,2013-11-10 10:23:00,
2013-11-10 04:28:00,25.7,18.9,30.27,NW,310,0.0,0.0,75,0.00,,CLR,0.00,VWS V14.00,2013-11-10 10:28:00,
2013-11-10 04:33:00,25.5,18.7,30.27,NW,310,0.0,0.0,75,0.00,,CLR,0.00,VWS V14.00,2013-11-10 10:33:00,
2013-11-10 04:37:00,25.4,18.6,30.27,NW,310,0.0,0.0,75,0.00,,CLR,0.00,VWS V14.00,2013-11-10 10:37:00,
2013-11-10 04:42:00,25.3,18.8,30.27,NW,310,0.0,0.0,76,0.00,,CLR,0.00,VWS V14.00,2013-11-10 10:42:00,
2013-11-10 04:47:00,25.2,18.7,30.28,NW,310,0.0,0.0,76,0.00,,CLR,0.00,VWS V14.00,2013-11-10 10:47:00,
2013-11-10 04:52:00,25.3,18.8,30.28,NW,310,0.0,0.0,76,0.00,,CLR,0.00,VWS V14.00,2013-11-10 10:52:00,
2013-11-10 04:57:00,25.3,18.8,30.28,NW,310,0.0,0.0,76,0.00,,CLR,0.00,VWS V14.00,2013-11-10 10:57:00,
2013-11-10 05:02:00,25.4,19.2,30.28,NW,310,0.0,0.0,77,0.00,,CLR,0.00,VWS V14.00,2013-11-10 11:02:00,
2013-11-10 05:07:00,25.4,19.2,30.28,NW,310,0.0,0.0,77,0.00,,CLR,0.00,VWS V14.00,2013-11-10 11:07:00,
2013-11-10 05:12:00,25.3,19.1,30.28,NW,310,0.0,0.0,77,0.00,,CLR,0.00,VWS V14.00,2013-11-10 11:12:00,
2013-11-10 05:17:00,25.4,19.2,30.28,NW,310,0.0,0.0,77,0.00,,CLR,0.00,VWS V14.00,2013-11-10 11:17:00,
2013-11-10 05:23:00,25.3,19.1,30.28,NW,310,0.0,0.0,77,0.00,,CLR,0.00,VWS V14.00,2013-11-10 11:23:00,
2013-11-10 05:28:00,25.3,19.1,30.28,NW,310,0.0,0.0,77,0.00,,CLR,0.00,VWS V14.00,2013-11-10 11:28:00,
2013-11-10 05:33:00,25.2,19.0,30.28,NW,310,0.0,0.0,77,0.00,,CLR,0.00,VWS V14.00,2013-11-10 11:33:00,
2013-11-10 05:38:00,25.2,19.0,30.28,NW,310,0.0,0.0,77,0.00,,CLR,0.00,VWS V14.00,2013-11-10 11:38:00,
2013-11-10 05:43:00,25.2,19.0,30.28,NW,310,0.0,0.0,77,0.00,,CLR,0.00,VWS V14.00,2013-11-10 11:43:00,
2013-11-10 05:48:00,25.3,19.1,30.28,NW,310,0.0,0.0,77,0.00,,CLR,0.00,VWS V14.00,2013-11-10 11:48:00,
2013-11-10 05:53:00,25.2,19.0,30.28,NW,310,0.0,0.0,77,0.00,,CLR,0.00,VWS V14.00,2013-11-10 11:53:00,
2013-11-10 05:58:00,25.1,18.9,30.28,NW,310,0.0,0.0,77,0.00,,CLR,0.00,VWS V14.00,2013-11-10 11:58:00,
2013-11-10 06:03:00,25.0,18.8,30.28,NW,310,0.0,0.0,77,0.00,,CLR,0.00,VWS V14.00,2013-11-10 12:03:00,
2013-11-10 06:08:00,24.9,18.7,30.27,NW,310,0.0,0.0,77,0.00,,CLR,0.00,VWS V14.00,2013-11-10 12:08:00,
2013-11-10 06:13:00,24.8,18.6,30.27,NW,310,0.0,0.0,77,0.00,,CLR,0.00,VWS V14.00,2013-11-10 12:13:00,
2013-11-10 06:18:00,24.7,18.5,30.27,NW,310,0.0,0.0,77,0.00,,CLR,0.00,VWS V14.00,2013-11-10 12:18:00,
2013-11-10 06:23:00,24.5,18.3,30.27,NW,310,0.0,0.0,77,0.00,,CLR,0.00,VWS V14.00,2013-11-10 12:23:00,
2013-11-10 06:28:00,24.4,18.5,30.27,NW,310,0.0,0.0,78,0.00,,CLR,0.00,VWS V14.00,2013-11-10 12:28:00,
2013-11-10 06:33:00,24.3,18.4,30.27,NW,310,0.0,0.0,78,0.00,,CLR,0.00,VWS V14.00,2013-11-10 12:33:00,
2013-11-10 06:38:00,24.2,18.3,30.26,NW,310,0.0,0.0,78,0.00,,CLR,0.00,VWS V14.00,2013-11-10 12:38:00,
2013-11-10 06:43:00,24.1,18.2,30.26,NW,310,0.0,0.0,78,0.00,,CLR,0.00,VWS V14.00,2013-11-10 12:43:00,
2013-11-10 06:48:00,24.1,18.2,30.26,NW,310,0.0,0.0,78,0.00,,CLR,0.00,VWS V14.00,2013-11-10 12:48:00,
2013-11-10 06:53:00,24.0,18.5,30.26,NW,310,0.0,0.0,79,0.00,,CLR,0.00,VWS V14.00,2013-11-10 12:53:00,
2013-11-10 06:58:00,24.0,18.1,30.26,NW,310,0.0,0.0,78,0.00,,CLR,0.00,VWS V14.00,2013-11-10 12:58:00,
2013-11-10 07:03:00,23.9,18.0,30.26,NW,310,0.0,0.0,78,0.00,,CLR,0.00,VWS V14.00,2013-11-10 13:03:00,
2013-11-10 07:08:00,23.7,17.9,30.26,NW,310,0.0,0.0,78,0.00,,CLR,0.00,VWS V14.00,2013-11-10 13:08:00,
2013-11-10 07:13:00,23.6,18.1,30.26,NW,310,0.0,0.0,79,0.00,,CLR,0.00,VWS V14.00,2013-11-10 13:13:00,
2013-11-10 07:18:00,23.6,18.1,30.25,NW,310,0.0,0.0,79,0.00,,CLR,0.00,VWS V14.00,2013-11-10 13:18:00,
2013-11-10 07:23:00,23.5,18.0,30.25,NW,310,0.0,0.0,79,0.00,,CLR,0.00,VWS V14.00,2013-11-10 13:23:00,
2013-11-10 07:28:00,23.5,18.0,30.25,NW,310,0.0,0.0,79,0.00,,CLR,0.00,VWS V14.00,2013-11-10 13:28:00,
2013-11-10 07:33:00,23.4,17.9,30.25,NW,310,0.0,0.0,79,0.00,,CLR,0.00,VWS V14.00,2013-11-10 13:33:00,
2013-11-10 07:38:00,23.3,17.8,30.26,NW,310,0.0,0.0,79,0.00,,CLR,0.00,VWS V14.00,2013-11-10 13:38:00,
2013-11-10 07:43:00,23.4,17.9,30.26,NW,310,0.0,0.0,79,0.00,,CLR,0.00,VWS V14.00,2013-11-10 13:43:00,
2013-11-10 07:48:00,23.6,18.4,30.26,NW,310,0.0,0.0,80,0.00,,CLR,0.00,VWS V14.00,2013-11-10 13:48:00,
2013-11-10 07:53:00,24.0,18.7,30.26,NW,310,0.0,0.0,80,0.00,,CLR,0.00,VWS V14.00,2013-11-10 13:53:00,
2013-11-10 07:58:00,24.5,19.2,30.26,NW,310,0.0,0.0,80,0.00,,CLR,0.00,VWS V14.00,2013-11-10 13:58:00,
2013-11-10 08:03:00,24.9,19.9,30.26,NW,309,0.0,0.0,81,0.00,,CLR,0.00,VWS V14.00,2013-11-10 14:03:00,
2013-11-10 08:08:00,25.4,20.1,30.26,NW,309,0.0,0.0,80,0.00,,CLR,0.00,VWS V14.00,2013-11-10 14:08:00,
2013-11-10 08:13:00,25.8,20.5,30.27,NW,309,0.0,0.0,80,0.00,,CLR,0.00,VWS V14.00,2013-11-10 14:13:00,
2013-11-10 08:18:00,26.2,20.9,30.27,NW,309,0.0,0.0,80,0.00,,CLR,0.00,VWS V14.00,2013-11-10 14:18:00,
2013-11-10 08:23:00,26.8,21.5,30.27,West,271,0.0,0.0,80,0.00,,CLR,0.00,VWS V14.00,2013-11-10 14:23:00,
2013-11-10 08:28:00,27.2,21.6,30.27,WSW,244,0.0,0.0,79,0.00,,CLR,0.00,VWS V14.00,2013-11-10 14:28:00,
2013-11-10 08:34:00,27.5,21.9,30.27,SW,234,0.0,0.0,79,0.00,,CLR,0.00,VWS V14.00,2013-11-10 14:34:00,
2013-11-10 08:39:00,27.7,22.0,30.27,SW,232,0.0,0.0,79,0.00,,CLR,0.00,VWS V14.00,2013-11-10 14:39:00,
2013-11-10 08:44:00,27.9,22.2,30.26,SW,225,0.0,0.0,79,0.00,,CLR,0.00,VWS V14.00,2013-11-10 14:44:00,
2013-11-10 08:49:00,28.0,22.0,30.26,SW,226,0.0,0.0,78,0.00,,CLR,0.00,VWS V14.00,2013-11-10 14:49:00,
2013-11-10 08:54:00,28.2,22.2,30.26,SW,225,0.0,0.0,78,0.00,,CLR,0.00,VWS V14.00,2013-11-10 14:54:00,
2013-11-10 08:59:00,28.4,22.4,30.26,SSW,197,0.0,0.0,78,0.00,,CLR,0.00,VWS V14.00,2013-11-10 14:59:00,
2013-11-10 09:04:00,28.6,22.3,30.25,SSW,201,0.0,2.0,77,0.00,,CLR,0.00,VWS V14.00,2013-11-10 15:04:00,
2013-11-10 09:09:00,28.9,22.6,30.26,SSW,196,0.0,3.0,77,0.00,,CLR,0.00,VWS V14.00,2013-11-10 15:09:00,
2013-11-10 09:14:00,29.0,22.7,30.25,SSW,202,0.0,2.0,77,0.00,,CLR,0.00,VWS V14.00,2013-11-10 15:14:00,
2013-11-10 09:19:00,29.3,23.0,30.25,South,190,0.0,5.0,77,0.00,,CLR,0.00,VWS V14.00,2013-11-10 15:19:00,
2013-11-10 09:24:00,29.5,22.9,30.25,SW,218,0.0,5.0,76,0.00,,CLR,0.00,VWS V14.00,2013-11-10 15:24:00,
2013-11-10 09:29:00,29.7,23.1,30.25,SSW,208,0.0,5.0,76,0.00,,CLR,0.00,VWS V14.00,2013-11-10 15:29:00,
2013-11-10 09:34:00,29.9,23.3,30.24,SSW,204,0.0,2.0,76,0.00,,CLR,0.00,VWS V14.00,2013-11-10 15:34:00,
2013-11-10 09:39:00,30.0,23.4,30.24,South,191,0.0,4.0,76,0.00,,CLR,0.00,VWS V14.00,2013-11-10 15:39:00,
2013-11-10 09:44:00,30.1,23.5,30.24,SW,224,1.0,7.0,76,0.00,,CLR,0.00,VWS V14.00,2013-11-10 15:44:00,
2013-11-10 09:49:00,30.4,23.8,30.24,SSW,201,0.0,7.0,76,0.00,,CLR,0.00,VWS V14.00,2013-11-10 15:49:00,
2013-11-10 09:54:00,30.5,23.5,30.24,South,189,0.0,6.0,75,0.00,,CLR,0.00,VWS V14.00,2013-11-10 15:54:00,
2013-11-10 09:59:00,30.7,23.7,30.23,South,181,2.0,7.0,75,0.00,,CLR,0.00,VWS V14.00,2013-11-10 15:59:00,
2013-11-10 10:04:00,30.8,23.5,30.23,SW,216,0.0,5.0,74,0.00,,CLR,0.00,VWS V14.00,2013-11-10 16:04:00,
2013-11-10 10:09:00,31.0,23.7,30.23,SSW,196,0.0,5.0,74,0.00,,CLR,0.00,VWS V14.00,2013-11-10 16:09:00,
2013-11-10 10:14:00,31.1,23.8,30.23,SSW,198,0.0,5.0,74,0.00,,CLR,0.00,VWS V14.00,2013-11-10 16:14:00,
2013-11-10 10:19:00,31.3,23.7,30.23,SSW,195,0.0,7.0,73,0.00,,CLR,0.00,VWS V14.00,2013-11-10 16:19:00,
2013-11-10 10:24:00,31.4,23.8,30.22,South,184,1.0,7.0,73,0.00,,CLR,0.00,VWS V14.00,2013-11-10 16:24:00,
2013-11-10 10:29:00,31.6,24.0,30.22,South,191,3.0,7.0,73,0.00,,CLR,0.00,VWS V14.00,2013-11-10 16:29:00,
2013-11-10 10:34:00,32.0,24.3,30.22,SSW,194,0.0,8.0,73,0.00,,CLR,0.00,VWS V14.00,2013-11-10 16:34:00,
2013-11-10 10:39:00,32.2,24.2,30.22,SSW,196,0.0,10.0,72,0.00,,CLR,0.00,VWS V14.00,2013-11-10 16:39:00,
2013-11-10 10:44:00,32.3,24.3,30.22,SW,214,0.0,8.0,72,0.00,,CLR,0.00,VWS V14.00,2013-11-10 16:44:00,
2013-11-10 10:49:00,32.5,24.5,30.22,South,191,0.0,8.0,72,0.00,,CLR,0.00,VWS V14.00,2013-11-10 16:49:00,
2013-11-10 10:54:00,32.7,24.7,30.22,SSW,199,1.0,8.0,72,0.00,,CLR,0.00,VWS V14.00,2013-11-10 16:54:00,
2013-11-10 10:59:00,32.9,24.9,30.22,SSW,207,0.0,8.0,72,0.00,,CLR,0.00,VWS V14.00,2013-11-10 16:59:00,
2013-11-10 11:04:00,33.2,24.8,30.21,SSW,193,2.0,6.0,71,0.00,,CLR,0.00,VWS V14.00,2013-11-10 17:04:00,
2013-11-10 11:09:00,33.2,24.8,30.20,SSW,193,1.0,8.0,71,0.00,,CLR,0.00,VWS V14.00,2013-11-10 17:09:00,
2013-11-10 11:14:00,33.4,25.0,30.21,South,185,2.0,7.0,71,0.00,,CLR,0.00,VWS V14.00,2013-11-10 17:14:00,
2013-11-10 11:19:00,33.5,25.1,30.20,South,186,0.0,7.0,71,0.00,,CLR,0.00,VWS V14.00,2013-11-10 17:19:00,
2013-11-10 11:24:00,33.7,25.3,30.21,South,188,0.0,4.0,71,0.00,,CLR,0.00,VWS V14.00,2013-11-10 17:24:00,
2013-11-10 11:29:00,33.9,25.5,30.20,SSW,196,0.0,6.0,71,0.00,,CLR,0.00,VWS V14.00,2013-11-10 17:29:00,
2013-11-10 11:34:00,34.2,25.5,30.20,SSW,196,0.0,3.0,70,0.00,,CLR,0.00,VWS V14.00,2013-11-10 17:34:00,
2013-11-10 11:39:00,34.3,25.2,30.20,South,182,4.0,10.0,69,0.00,,CLR,0.00,VWS V14.00,2013-11-10 17:39:00,
2013-11-10 11:44:00,34.5,25.4,30.19,SSW,202,4.0,8.0,69,0.00,,CLR,0.00,VWS V14.00,2013-11-10 17:44:00,
2013-11-10 11:49:00,34.6,25.5,30.19,South,184,4.0,9.0,69,0.00,,CLR,0.00,VWS V14.00,2013-11-10 17:49:00,
2013-11-10 11:54:00,34.7,25.6,30.18,SSW,195,2.0,11.0,69,0.00,,CLR,0.00,VWS V14.00,2013-11-10 17:54:00,
2013-11-10 11:59:00,34.9,25.8,30.18,SSW,196,6.0,11.0,69,0.00,,CLR,0.00,VWS V14.00,2013-11-10 17:59:00,
2013-11-10 12:04:00,35.2,26.1,30.17,South,183,0.0,8.0,69,0.00,,CLR,0.00,VWS V14.00,2013-11-10 18:04:00,
2013-11-10 12:09:00,35.6,26.1,30.17,South,188,5.0,9.0,68,0.00,,CLR,0.00,VWS V14.00,2013-11-10 18:09:00,
2013-11-10 12:14:00,35.8,26.3,30.17,South,189,0.0,6.0,68,0.00,,CLR,0.00,VWS V14.00,2013-11-10 18:14:00,
2013-11-10 12:19:00,36.1,26.6,30.16,South,188,0.0,7.0,68,0.00,,CLR,0.00,VWS V14.00,2013-11-10 18:19:00,
2013-11-10 12:24:00,36.4,26.5,30.16,South,186,6.0,11.0,67,0.00,,CLR,0.00,VWS V14.00,2013-11-10 18:24:00,
2013-11-10 12:29:00,36.5,26.2,30.16,South,185,3.0,11.0,66,0.00,,CLR,0.00,VWS V14.00,2013-11-10 18:29:00,
2013-11-10 12:34:00,36.8,26.5,30.16,South,188,2.0,7.0,66,0.00,,CLR,0.00,VWS V14.00,2013-11-10 18:34:00,
2013-11-10 12:39:00,37.0,26.7,30.15,South,190,3.0,7.0,66,0.00,,CLR,0.00,VWS V14.00,2013-11-10 18:39:00,
2013-11-10 12:44:00,37.1,26.8,30.15,South,190,2.0,6.0,66,0.00,,CLR,0.00,VWS V14.00,2013-11-10 18:44:00,
2013-11-10 12:49:00,37.3,26.6,30.15,South,190,0.0,6.0,65,0.00,,CLR,0.00,VWS V14.00,2013-11-10 18:49:00,
2013-11-10 12:54:00,37.5,26.8,30.15,South,190,0.0,7.0,65,0.00,,CLR,0.00,VWS V14.00,2013-11-10 18:54:00,
2013-11-10 12:59:00,37.6,26.9,30.15,SSW,195,0.0,10.0,65,0.00,,CLR,0.00,VWS V14.00,2013-11-10 18:59:00,
2013-11-10 13:05:00,37.7,26.6,30.14,SSW,197,1.0,9.0,64,0.00,,BKN085,0.00,VWS V14.00,2013-11-10 19:05:00,
2013-11-10 13:10:00,37.8,26.7,30.14,SSW,197,0.0,9.0,64,0.00,,BKN085,0.00,VWS V14.00,2013-11-10 19:10:00,
2013-11-10 13:14:00,38.0,26.9,30.14,South,186,0.0,9.0,64,0.00,,BKN085,0.00,VWS V14.00,2013-11-10 19:14:00,
2013-11-10 13:19:00,38.0,26.9,30.13,South,188,6.0,9.0,64,0.00,,BKN085,0.00,VWS V14.00,2013-11-10 19:19:00,
2013-11-10 13:25:00,38.0,26.5,30.13,South,191,0.0,11.0,63,0.00,,BKN085,0.00,VWS V14.00,2013-11-10 19:25:00,
2013-11-10 13:30:00,38.0,26.5,30.13,South,182,7.0,11.0,63,0.00,,BKN085,0.00,VWS V14.00,2013-11-10 19:30:00,
2013-11-10 13:35:00,38.0,26.5,30.14,South,177,6.0,9.0,63,0.00,,BKN085,0.00,VWS V14.00,2013-11-10 19:35:00,
2013-11-10 13:40:00,37.8,26.0,30.13,South,180,0.0,1.0,62,0.00,,BKN085,0.00,VWS V14.00,2013-11-10 19:40:00,
2013-11-10 13:45:00,37.7,26.3,30.13,South,184,1.0,13.0,63,0.00,,BKN085,0.00,VWS V14.00,2013-11-10 19:45:00,
2013-11-10 13:50:00,37.6,26.2,30.13,South,185,6.0,6.0,63,0.00,,BKN085,0.00,VWS V14.00,2013-11-10 19:50:00,
2013-11-10 13:55:00,37.5,26.1,30.13,South,185,0.0,9.0,63,0.00,,BKN085,0.00,VWS V14.00,2013-11-10 19:55:00,
2013-11-10 14:00:00,37.4,26.4,30.13,South,185,3.0,3.0,64,0.00,,BKN085,0.00,VWS V14.00,2013-11-10 20:00:00,
2013-11-10 14:05:00,37.4,26.4,30.13,South,185,0.0,6.0,64,0.00,,OVC080,0.00,VWS V14.00,2013-11-10 20:05:00,
2013-11-10 14:10:00,37.4,26.4,30.15,South,185,0.0,0.0,64,0.00,,OVC080,0.00,VWS V14.00,2013-11-10 20:10:00,
2013-11-10 14:15:00,37.4,26.4,30.14,SSW,192,3.0,8.0,64,0.00,,OVC080,0.00,VWS V14.00,2013-11-10 20:15:00,
2013-11-10 14:20:00,37.5,26.5,30.14,SSW,192,0.0,0.0,64,0.00,,OVC080,0.00,VWS V14.00,2013-11-10 20:20:00,
2013-11-10 14:25:00,37.5,26.5,30.14,SSW,192,0.0,0.0,64,0.00,,OVC080,0.00,VWS V14.00,2013-11-10 20:25:00,
2013-11-10 14:30:00,37.6,26.5,30.14,SSW,192,0.0,0.0,64,0.00,,OVC080,0.00,VWS V14.00,2013-11-10 20:30:00,
2013-11-10 14:35:00,37.6,26.5,30.14,SSW,192,1.0,3.0,64,0.00,,OVC080,0.00,VWS V14.00,2013-11-10 20:35:00,
2013-11-10 14:40:00,37.7,26.6,30.14,SSW,192,0.0,0.0,64,0.00,,OVC080,0.00,VWS V14.00,2013-11-10 20:40:00,
2013-11-10 14:45:00,37.7,26.6,30.14,SSW,193,0.0,7.0,64,0.00,,OVC080,0.00,VWS V14.00,2013-11-10 20:45:00,
2013-11-10 14:50:00,37.7,26.3,30.13,SSW,193,0.0,0.0,63,0.00,,OVC080,0.00,VWS V14.00,2013-11-10 20:50:00,
2013-11-10 14:55:00,37.7,26.6,30.14,SSW,193,0.0,0.0,64,0.00,,OVC080,0.00,VWS V14.00,2013-11-10 20:55:00,
2013-11-10 15:00:00,37.7,26.3,30.14,SSW,192,0.0,0.0,63,0.00,,OVC080,0.00,VWS V14.00,2013-11-10 21:00:00,
2013-11-10 15:05:00,37.7,26.3,30.14,SSW,193,0.0,0.0,63,0.00,,OVC080,0.00,VWS V14.00,2013-11-10 21:05:00,
2013-11-10 15:10:00,37.8,26.4,30.14,SSW,192,0.0,3.0,63,0.00,,OVC080,0.00,VWS V14.00,2013-11-10 21:10:00,
2013-11-10 15:15:00,37.8,26.4,30.13,SSW,192,0.0,3.0,63,0.00,,OVC080,0.00,VWS V14.00,2013-11-10 21:15:00,
2013-11-10 15:20:00,37.8,26.4,30.13,SSW,192,0.0,0.0,63,0.00,,OVC080,0.00,VWS V14.00,2013-11-10 21:20:00,
2013-11-10 15:25:00,37.8,26.4,30.13,SSW,192,0.0,5.0,63,0.00,,OVC080,0.00,VWS V14.00,2013-11-10 21:25:00,
2013-11-10 15:30:00,37.8,26.0,30.12,SSW,192,0.0,0.0,62,0.00,,OVC080,0.00,VWS V14.00,2013-11-10 21:30:00,
2013-11-10 15:35:00,37.8,26.4,30.13,SSW,193,0.0,0.0,63,0.00,,OVC080,0.00,VWS V14.00,2013-11-10 21:35:00,
2013-11-10 15:40:00,37.7,26.3,30.13,SSW,192,0.0,0.0,63,0.00,,OVC080,0.00,VWS V14.00,2013-11-10 21:40:00,
2013-11-10 15:45:00,37.7,26.3,30.13,SSW,193,0.0,0.0,63,0.00,,OVC080,0.00,VWS V14.00,2013-11-10 21:45:00,
2013-11-10 15:50:00,37.7,26.3,30.13,SSW,193,0.0,0.0,63,0.00,,OVC080,0.00,VWS V14.00,2013-11-10 21:50:00,
2013-11-10 15:55:00,37.7,26.3,30.13,SSW,193,0.0,0.0,63,0.00,,OVC080,0.00,VWS V14.00,2013-11-10 21:55:00,
2013-11-10 16:00:00,37.7,26.3,30.13,SSW,193,0.0,0.0,63,0.00,,BKN110,0.00,VWS V14.00,2013-11-10 22:00:00,
2013-11-10 16:05:00,37.6,26.5,30.13,SSW,193,0.0,0.0,64,0.00,,BKN110,0.00,VWS V14.00,2013-11-10 22:05:00,
2013-11-10 16:10:00,37.6,26.5,30.13,SSW,193,0.0,0.0,64,0.00,,BKN110,0.00,VWS V14.00,2013-11-10 22:10:00,
2013-11-10 16:15:00,37.5,26.5,30.13,SSW,192,0.0,0.0,64,0.00,,BKN110,0.00,VWS V14.00,2013-11-10 22:15:00,
2013-11-10 16:20:00,37.4,26.4,30.13,SSW,192,0.0,0.0,64,0.00,,BKN110,0.00,VWS V14.00,2013-11-10 22:20:00,
2013-11-10 16:25:00,37.4,26.4,30.13,SSW,193,0.0,0.0,64,0.00,,BKN110,0.00,VWS V14.00,2013-11-10 22:25:00,
2013-11-10 16:30:00,37.3,26.3,30.13,SSW,192,0.0,0.0,64,0.00,,BKN110,0.00,VWS V14.00,2013-11-10 22:30:00,
2013-11-10 16:35:00,37.3,26.3,30.13,SSW,192,0.0,0.0,64,0.00,,BKN110,0.00,VWS V14.00,2013-11-10 22:35:00,
2013-11-10 16:40:00,37.3,26.3,30.13,SSW,192,0.0,0.0,64,0.00,,BKN110,0.00,VWS V14.00,2013-11-10 22:40:00,
2013-11-10 16:45:00,37.2,26.2,30.13,SSW,193,0.0,0.0,64,0.00,,BKN110,0.00,VWS V14.00,2013-11-10 22:45:00,
2013-11-10 16:50:00,37.2,26.2,30.13,SSW,193,0.0,0.0,64,0.00,,BKN110,0.00,VWS V14.00,2013-11-10 22:50:00,
2013-11-10 16:55:00,37.2,26.5,30.13,SSW,193,0.0,0.0,65,0.00,,BKN110,0.00,VWS V14.00,2013-11-10 22:55:00,
2013-11-10 17:00:00,37.2,26.5,30.13,SSW,193,0.0,0.0,65,0.00,,OVC060,0.00,VWS V14.00,2013-11-10 23:00:00,
2013-11-10 17:05:00,37.2,26.2,30.14,SSW,193,0.0,0.0,64,0.00,,OVC060,0.00,VWS V14.00,2013-11-10 23:05:00,
2013-11-10 17:10:00,37.2,26.5,30.14,SSW,192,0.0,0.0,65,0.00,,OVC060,0.00,VWS V14.00,2013-11-10 23:10:00,
2013-11-10 17:15:00,37.0,26.3,30.16,North,4,10.0,19.0,65,0.00,,,0.00,VWS V14.00,2013-11-10 23:15:00,
2013-11-10 17:20:00,34.9,25.4,30.17,North,0,17.0,23.0,68,0.00,,,0.00,VWS V14.00,2013-11-10 23:20:00,
2013-11-10 17:25:00,33.3,24.9,30.17,North,2,14.0,23.0,71,0.00,,,0.00,VWS V14.00,2013-11-10 23:25:00,
2013-11-10 17:30:00,31.7,23.7,30.17,North,352,13.0,22.0,72,0.00,,,0.00,VWS V14.00,2013-11-10 23:30:00,
2013-11-10 17:35:00,30.3,22.7,30.18,North,356,19.0,27.0,73,0.00,,,0.00,VWS V14.00,2013-11-10 23:35:00,
2013-11-10 17:40:00,29.5,22.2,30.19,North,2,18.0,21.0,74,0.00,,,0.00,VWS V14.00,2013-11-10 23:40:00,
2013-11-10 17:45:00,28.8,21.6,30.19,North,2,17.0,27.0,74,0.00,,,0.00,VWS V14.00,2013-11-10 23:45:00,
2013-11-10 17:50:00,27.9,20.7,30.19,North,0,13.0,23.0,74,0.00,,OVC023,0.00,VWS V14.00,2013-11-10 23:50:00,
2013-11-10 17:55:00,27.4,20.2,30.18,North,1,12.0,26.0,74,0.00,,OVC023,0.00,VWS V14.00,2013-11-10 23:55:00,
2013-11-10 18:00:00,27.1,20.2,30.19,North,350,14.0,25.0,75,0.00,,OVC023,0.00,VWS V14.00,2013-11-11 00:00:00,
2013-11-10 18:05:00,26.7,19.9,30.20,NNW,348,17.0,30.0,75,0.00,,OVC023,0.00,VWS V14.00,2013-11-11 00:05:00,
2013-11-10 18:10:00,26.0,18.5,30.21,North,2,10.0,28.0,73,0.00,,OVC023,0.00,VWS V14.00,2013-11-11 00:10:00,
2013-11-10 18:16:00,25.6,18.2,30.22,North,355,10.0,33.0,73,0.00,,OVC023,0.00,VWS V14.00,2013-11-11 00:16:00,
2013-11-10 18:21:00,25.3,17.5,30.22,North,354,18.0,27.0,72,0.00,,OVC023,0.00,VWS V14.00,2013-11-11 00:21:00,
2013-11-10 18:26:00,24.9,17.2,30.22,North,5,24.0,27.0,72,0.00,,OVC021,0.00,VWS V14.00,2013-11-11 00:26:00,
2013-11-10 18:31:00,24.4,16.4,30.22,North,355,18.0,30.0,71,0.00,,OVC021,0.00,VWS V14.00,2013-11-11 00:31:00,
2013-11-10 18:36:00,23.9,15.9,30.22,North,1,16.0,30.0,71,0.00,,OVC021,0.00,VWS V14.00,2013-11-11 00:36:00,
2013-11-10 18:41:00,23.5,15.2,30.22,North,355,17.0,27.0,70,0.00,,OVC021,0.00,VWS V14.00,2013-11-11 00:41:00,
2013-11-10 18:46:00,23.1,14.8,30.23,North,7,14.0,31.0,70,0.00,,OVC021,0.00,VWS V14.00,2013-11-11 00:46:00,
2013-11-10 18:51:00,22.9,14.6,30.24,NNW,346,22.0,22.0,70,0.00,,OVC021,0.00,VWS V14.00,2013-11-11 00:51:00,
2013-11-10 18:56:00,22.8,14.5,30.25,North,355,12.0,28.0,70,0.00,,OVC021,0.00,VWS V14.00,2013-11-11 00:56:00,
2013-11-10 19:01:00,22.5,13.9,30.25,NNE,13,20.0,33.0,69,0.00,,OVC023,0.00,VWS V14.00,2013-11-11 01:01:00,
2013-11-10 19:06:00,22.2,13.6,30.26,North,3,21.0,33.0,69,0.00,,OVC023,0.00,VWS V14.00,2013-11-11 01:06:00,
2013-11-10 19:11:00,22.1,13.8,30.25,North,3,12.0,24.0,70,0.00,,OVC023,0.00,VWS V14.00,2013-11-11 01:11:00,
2013-11-10 19:16:00,21.8,13.9,30.25,North,1,12.0,26.0,71,0.00,,OVC023,0.00,VWS V14.00,2013-11-11 01:16:00,
2013-11-10 19:21:00,21.7,13.8,30.25,North,2,18.0,24.0,71,0.00,,OVC023,0.00,VWS V14.00,2013-11-11 01:21:00,
2013-11-10 19:26:00,21.5,13.6,30.25,North,3,13.0,24.0,71,0.00,,OVC023,0.00,VWS V14.00,2013-11-11 01:26:00,
2013-11-10 19:31:00,21.4,13.1,30.25,North,2,15.0,20.0,70,0.00,,OVC023,0.00,VWS V14.00,2013-11-11 01:31:00,
2013-11-10 19:36:00,21.4,13.5,30.25,North,11,18.0,21.0,71,0.00,,OVC023,0.00,VWS V14.00,2013-11-11 01:36:00,
2013-11-10 19:41:00,21.5,13.6,30.25,North,0,19.0,22.0,71,0.00,,OVC023,0.00,VWS V14.00,2013-11-11 01:41:00,
2013-11-10 19:46:00,21.6,14.0,30.26,North,359,10.0,22.0,72,0.00,,OVC023,0.00,VWS V14.00,2013-11-11 01:46:00,
2013-11-10 19:51:00,21.8,14.2,30.26,North,352,5.0,19.0,72,0.00,,OVC023,0.00,VWS V14.00,2013-11-11 01:51:00,
2013-11-10 19:56:00,22.0,14.4,30.25,North,0,13.0,19.0,72,0.00,,OVC023,0.00,VWS V14.00,2013-11-11 01:56:00,
2013-11-10 20:01:00,22.1,14.1,30.25,North,0,18.0,21.0,71,0.00,,OVC075,0.00,VWS V14.00,2013-11-11 02:01:00,
2013-11-10 20:06:00,22.4,13.4,30.25,North,1,19.0,24.0,68,0.00,,OVC075,0.00,VWS V14.00,2013-11-11 02:06:00,
2013-11-10 20:11:00,22.4,11.7,30.25,North,356,21.0,27.0,63,0.00,,OVC075,0.00,VWS V14.00,2013-11-11 02:11:00,
2013-11-10 20:16:00,22.3,9.4,30.25,North,2,20.0,27.0,57,0.00,,OVC075,0.00,VWS V14.00,2013-11-11 02:16:00,
2013-11-10 20:21:00,22.2,9.3,30.26,North,0,17.0,21.0,57,0.00,,OVC075,0.00,VWS V14.00,2013-11-11 02:21:00,
2013-11-10 20:26:00,22.1,10.0,30.27,North,357,6.0,21.0,59,0.00,,OVC075,0.00,VWS V14.00,2013-11-11 02:26:00,
2013-11-10 20:31:00,22.2,10.8,30.26,North,359,13.0,16.0,61,0.00,,OVC075,0.00,VWS V14.00,2013-11-11 02:31:00,
2013-11-10 20:36:00,22.0,11.0,30.27,North,352,7.0,21.0,62,0.00,,OVC075,0.00,VWS V14.00,2013-11-11 02:36:00,
2013-11-10 20:41:00,21.9,11.2,30.28,North,355,16.0,19.0,63,0.00,,OVC075,0.00,VWS V14.00,2013-11-11 02:41:00,
2013-11-10 20:46:00,21.8,11.2,30.27,North,0,6.0,21.0,63,0.00,,OVC075,0.00,VWS V14.00,2013-11-11 02:46:00,
2013-11-10 20:51:00,21.5,10.9,30.28,North,351,14.0,18.0,63,0.00,,OVC075,0.00,VWS V14.00,2013-11-11 02:51:00,
2013-11-10 20:56:00,21.4,10.8,30.28,North,355,12.0,19.0,63,0.00,,OVC075,0.00,VWS V14.00,2013-11-11 02:56:00,
2013-11-10 21:01:00,21.1,10.5,30.28,North,359,17.0,23.0,63,0.00,,OVC075,0.00,VWS V14.00,2013-11-11 03:01:00,
2013-11-10 21:06:00,20.8,10.2,30.28,North,1,13.0,24.0,63,0.00,,OVC075,0.00,VWS V14.00,2013-11-11 03:06:00,
2013-11-10 21:12:00,20.5,10.3,30.29,North,354,8.0,17.0,64,0.00,,OVC075,0.00,VWS V14.00,2013-11-11 03:12:00,
2013-11-10 21:17:00,20.4,10.2,30.29,North,357,14.0,22.0,64,0.00,,OVC075,0.00,VWS V14.00,2013-11-11 03:17:00,
2013-11-10 21:22:00,20.2,10.0,30.29,North,1,14.0,23.0,64,0.00,,OVC075,0.00,VWS V14.00,2013-11-11 03:22:00,
2013-11-10 21:27:00,19.9,9.7,30.30,North,1,13.0,27.0,64,0.00,,OVC075,0.00,VWS V14.00,2013-11-11 03:27:00,
2013-11-10 21:32:00,19.7,9.5,30.30,North,0,9.0,16.0,64,0.00,,OVC075,0.00,VWS V14.00,2013-11-11 03:32:00,
2013-11-10 21:37:00,19.5,9.7,30.30,North,359,10.0,16.0,65,0.00,,OVC075,0.00,VWS V14.00,2013-11-11 03:37:00,
2013-11-10 21:42:00,19.2,9.4,30.31,North,349,17.0,17.0,65,0.00,,OVC075,0.00,VWS V14.00,2013-11-11 03:42:00,
2013-11-10 21:47:00,19.0,9.5,30.31,North,359,14.0,20.0,66,0.00,,OVC075,0.00,VWS V14.00,2013-11-11 03:47:00,
2013-11-10 21:52:00,18.9,9.4,30.31,North,0,13.0,17.0,66,0.00,,OVC075,0.00,VWS V14.00,2013-11-11 03:52:00,
2013-11-10 21:57:00,18.7,9.2,30.31,North,359,11.0,24.0,66,0.00,,OVC075,0.00,VWS V14.00,2013-11-11 03:57:00,
2013-11-10 22:02:00,18.6,9.1,30.31,North,0,11.0,23.0,66,0.00,,CLR,0.00,VWS V14.00,2013-11-11 04:02:00,
2013-11-10 22:07:00,18.5,9.4,30.32,North,358,8.0,23.0,67,0.00,,CLR,0.00,VWS V14.00,2013-11-11 04:07:00,
2013-11-10 22:12:00,18.4,9.0,30.33,North,352,14.0,22.0,66,0.00,,CLR,0.00,VWS V14.00,2013-11-11 04:12:00,
2013-11-10 22:17:00,18.3,8.9,30.33,North,359,18.0,22.0,66,0.00,,CLR,0.00,VWS V14.00,2013-11-11 04:17:00,
2013-11-10 22:22:00,18.2,9.1,30.32,North,359,9.0,18.0,67,0.00,,CLR,0.00,VWS V14.00,2013-11-11 04:22:00,
2013-11-10 22:27:00,18.2,9.1,30.33,North,349,10.0,19.0,67,0.00,,CLR,0.00,VWS V14.00,2013-11-11 04:27:00,
2013-11-10 22:32:00,18.1,9.0,30.33,North,358,19.0,21.0,67,0.00,,CLR,0.00,VWS V14.00,2013-11-11 04:32:00,
2013-11-10 22:37:00,18.1,8.7,30.33,North,359,14.0,23.0,66,0.00,,CLR,0.00,VWS V14.00,2013-11-11 04:37:00,
2013-11-10 22:42:00,18.1,8.3,30.33,NNW,347,13.0,21.0,65,0.00,,CLR,0.00,VWS V14.00,2013-11-11 04:42:00,
2013-11-10 22:47:00,18.0,8.2,30.33,North,4,13.0,21.0,65,0.00,,CLR,0.00,VWS V14.00,2013-11-11 04:47:00,
2013-11-10 22:52:00,17.9,7.8,30.33,North,8,16.0,24.0,64,0.00,,CLR,0.00,VWS V14.00,2013-11-11 04:52:00,
2013-11-10 22:57:00,17.8,7.7,30.33,NNE,15,17.0,26.0,64,0.00,,CLR,0.00,VWS V14.00,2013-11-11 04:57:00,
2013-11-10 23:01:00,17.7,7.3,30.33,North,3,20.0,23.0,63,0.00,,SCT110,0.00,VWS V14.00,2013-11-11 05:01:00,
2013-11-10 23:02:00,17.7,7.3,30.34,North,1,20.0,23.0,63,0.00,,SCT110,0.00,VWS V14.00,2013-11-11 05:02:00,
2013-11-10 23:07:00,17.6,7.5,30.33,North,2,17.0,24.0,64,0.00,,SCT110,0.00,VWS V14.00,2013-11-11 05:07:00,
2013-11-10 23:12:00,17.6,7.2,30.34,NNW,343,14.0,23.0,63,0.00,,SCT110,0.00,VWS V14.00,2013-11-11 05:12:00,
2013-11-10 23:17:00,17.6,7.5,30.34,North,358,8.0,23.0,64,0.00,,SCT110,0.00,VWS V14.00,2013-11-11 05:17:00,
2013-11-10 23:22:00,17.5,7.4,30.34,North,0,19.0,26.0,64,0.00,,SCT110,0.00,VWS V14.00,2013-11-11 05:22:00,
2013-11-10 23:27:00,17.5,7.1,30.34,North,0,8.0,26.0,63,0.00,,SCT110,0.00,VWS V14.00,2013-11-11 05:27:00,
2013-11-10 23:32:00,17.5,7.4,30.35,North,352,15.0,20.0,64,0.00,,SCT110,0.00,VWS V14.00,2013-11-11 05:32:00,
2013-11-10 23:37:00,17.4,7.7,30.35,North,0,12.0,20.0,65,0.00,,SCT110,0.00,VWS V14.00,2013-11-11 05:37:00,
2013-11-10 23:42:00,17.5,7.8,30.35,North,0,8.0,17.0,65,0.00,,SCT110,0.00,VWS V14.00,2013-11-11 05:42:00,
2013-11-10 23:47:00,17.4,7.7,30.36,North,353,8.0,20.0,65,0.00,,SCT110,0.00,VWS V14.00,2013-11-11 05:47:00,
2013-11-10 23:52:00,17.3,7.6,30.36,NNE,17,12.0,23.0,65,0.00,,SCT110,0.00,VWS V14.00,2013-11-11 05:52:00,
2013-11-10 23:57:00,17.1,7.0,30.37,North,357,12.0,23.0,64,0.00,,SCT110,0.00,VWS V14.00,2013-11-11 05:57:00,